When you browse on this site, cookies collect data to enhance your experience and personalize the content and advertising you see.
Visit our Privacy Policy to learn more. By continuing to use the site, you agree to this use of cookies and data.
  • In Austria
  • List of Countries
  • For 7 days
  • Water Temperature
  • Satellite Maps
  • Weather Map
  • News
  • Weather Widgets
  • user-avatar
    Login

    Hourly Weather Staunton

    Today, 20 July, Saturday

    Time Temperature Precipitation Wind Pressure Humidity
    00:00 +25°C° 0 mm 1 mps 721 mmHg 84%
    01:00 +24°C° 0 mm 1 mps 722 mmHg 85%
    02:00 +24°C° 0 mm 1 mps 722 mmHg 86%
    03:00 +24°C° 0 mm 1 mps 721 mmHg 87%
    04:00 +23°C° 0 mm 1 mps 721 mmHg 88%
    05:00 +24°C° 0 mm 1 mps 722 mmHg 86%
    06:00 +25°C° 0 mm 1 mps 722 mmHg 84%
    07:00 +26°C° 0 mm 1 mps 723 mmHg 82%
    08:00 +29°C° 0 mm 1 mps 723 mmHg 74%
    09:00 +31°C° 0 mm 1 mps 723 mmHg 67%
    10:00 +33°C° 0 mm 1 mps 723 mmHg 59%
    11:00 +34°C° 0 mm 1 mps 723 mmHg 55%
    12:00 +36°C° 0 mm 2 mps 722 mmHg 52%
    13:00 +37°C° 0 mm 2 mps 722 mmHg 48%
    14:00 +37°C° 0 mm 3 mps 722 mmHg 47%
    15:00 +37°C° 0 mm 3 mps 721 mmHg 46%
    16:00 +37°C° 0 mm 3 mps 721 mmHg 45%
    17:00 +36°C° 0 mm 3 mps 721 mmHg 51%
    18:00 +34°C° 0 mm 2 mps 721 mmHg 56%
    19:00 +31°C° 0 mm 2 mps 721 mmHg 62%
    20:00 +30°C° 0.1 mm 2 mps 721 mmHg 66%
    21:00 +28°C° 0.1 mm 1 mps 721 mmHg 69%
    22:00 +27°C° 0.1 mm 1 mps 721 mmHg 72%
    23:00 +26°C° 0 mm 1 mps 721 mmHg 75%

    Tomorrow, 21 July, Sunday

    Time Temperature Precipitation Wind Pressure Humidity
    00:00 +26°C° 0 mm 1 mps 721 mmHg 77%
    01:00 +25°C° 0 mm 1 mps 721 mmHg 80%
    02:00 +25°C° 0 mm 1 mps 721 mmHg 82%
    03:00 +24°C° 0 mm 1 mps 721 mmHg 84%
    04:00 +24°C° 0 mm 1 mps 721 mmHg 85%
    05:00 +25°C° 0 mm 1 mps 721 mmHg 84%
    06:00 +26°C° 0 mm 1 mps 721 mmHg 83%
    07:00 +27°C° 0 mm 1 mps 722 mmHg 81%
    08:00 +29°C° 0 mm 2 mps 722 mmHg 73%
    09:00 +31°C° 0 mm 2 mps 722 mmHg 64%
    10:00 +34°C° 0 mm 2 mps 722 mmHg 55%
    11:00 +35°C° 0 mm 2 mps 722 mmHg 51%
    12:00 +36°C° 0 mm 3 mps 722 mmHg 48%
    13:00 +37°C° 0 mm 3 mps 722 mmHg 44%
    14:00 +37°C° 0 mm 3 mps 721 mmHg 45%
    15:00 +37°C° 0 mm 3 mps 721 mmHg 47%
    16:00 +37°C° 0 mm 4 mps 721 mmHg 48%
    17:00 +35°C° 0.1 mm 3 mps 721 mmHg 54%
    18:00 +32°C° 0.1 mm 2 mps 721 mmHg 60%
    19:00 +31°C° 0.1 mm 1 mps 720 mmHg 66%
    20:00 +28°C° 0.7 mm 1 mps 720 mmHg 73%
    21:00 +26°C° 0.7 mm 1 mps 720 mmHg 79%
    22:00 +24°C° 0.7 mm 1 mps 720 mmHg 86%
    23:00 +24°C° 1.2 mm 1 mps 720 mmHg 86%

    Day after tomorrow, 22 July, Monday

    Time Temperature Precipitation Wind Pressure Humidity
    00:00 +24°C° 1.2 mm 1 mps 720 mmHg 87%
    01:00 +24°C° 1.2 mm 1 mps 720 mmHg 88%
    02:00 +24°C° 0.3 mm 1 mps 720 mmHg 88%
    03:00 +23°C° 0.3 mm 1 mps 719 mmHg 89%
    04:00 +23°C° 0.3 mm 1 mps 719 mmHg 90%
    05:00 +24°C° 0 mm 2 mps 719 mmHg 90%
    06:00 +25°C° 0 mm 2 mps 720 mmHg 89%
    07:00 +25°C° 0 mm 2 mps 720 mmHg 89%
    08:00 +27°C° 0.1 mm 3 mps 720 mmHg 80%
    09:00 +29°C° 0.1 mm 3 mps 720 mmHg 71%
    10:00 +32°C° 0.1 mm 4 mps 720 mmHg 62%
    11:00 +32°C° 0.7 mm 4 mps 720 mmHg 65%
    12:00 +32°C° 0.7 mm 5 mps 720 mmHg 67%
    13:00 +32°C° 0.7 mm 5 mps 719 mmHg 70%
    14:00 +32°C° 0.7 mm 5 mps 719 mmHg 69%
    15:00 +30°C° 0.7 mm 4 mps 719 mmHg 68%
    16:00 +30°C° 0.7 mm 4 mps 718 mmHg 67%
    17:00 +29°C° 0.3 mm 3 mps 718 mmHg 72%
    18:00 +28°C° 0.3 mm 3 mps 718 mmHg 76%
    19:00 +26°C° 0.3 mm 2 mps 718 mmHg 81%
    20:00 +26°C° 1.1 mm 2 mps 718 mmHg 84%
    21:00 +25°C° 1.1 mm 3 mps 718 mmHg 87%
    22:00 +24°C° 1.1 mm 3 mps 718 mmHg 91%
    23:00 +22°C° 0.6 mm 3 mps 718 mmHg 92%

    23 July, Tuesday

    Time Temperature Precipitation Wind Pressure Humidity
    00:00 +22°C° 0.6 mm 3 mps 718 mmHg 94%
    01:00 +23°C° 0.6 mm 2 mps 718 mmHg 95%
    02:00 +23°C° 0.4 mm 2 mps 718 mmHg 96%
    03:00 +21°C° 0.4 mm 2 mps 718 mmHg 96%
    04:00 +21°C° 0.4 mm 2 mps 718 mmHg 96%
    05:00 +22°C° 0.7 mm 1 mps 718 mmHg 96%
    06:00 +22°C° 0.7 mm 1 mps 719 mmHg 96%
    07:00 +21°C° 0.7 mm 1 mps 719 mmHg 96%
    08:00 +21°C° 0.6 mm 1 mps 719 mmHg 92%
    09:00 +21°C° 0.6 mm 1 mps 720 mmHg 88%
    10:00 +21°C° 0.6 mm 1 mps 720 mmHg 84%
    11:00 +23°C° 0.1 mm 1 mps 720 mmHg 76%
    12:00 +24°C° 0.1 mm 1 mps 720 mmHg 68%
    13:00 +26°C° 0.1 mm 1 mps 720 mmHg 60%
    14:00 +26°C° 0.1 mm 1 mps 720 mmHg 56%
    15:00 +27°C° 0.1 mm 2 mps 720 mmHg 53%
    16:00 +27°C° 0.1 mm 2 mps 720 mmHg 49%
    17:00 +26°C° 0 mm 2 mps 720 mmHg 55%
    18:00 +24°C° 0 mm 2 mps 720 mmHg 60%
    19:00 +23°C° 0 mm 2 mps 720 mmHg 66%
    20:00 +21°C° 0 mm 2 mps 720 mmHg 67%
    21:00 +20°C° 0 mm 1 mps 721 mmHg 68%
    22:00 +19°C° 0 mm 1 mps 721 mmHg 69%
    23:00 +18°C° 0 mm 1 mps 721 mmHg 71%

    24 July, Wednesday

    Time Temperature Precipitation Wind Pressure Humidity
    00:00 +16°C° 0 mm 1 mps 721 mmHg 73%
    01:00 +16°C° 0 mm 1 mps 721 mmHg 75%
    02:00 +15°C° 0 mm 1 mps 721 mmHg 78%
    03:00 +15°C° 0 mm 1 mps 721 mmHg 80%
    04:00 +15°C° 0 mm 1 mps 721 mmHg 82%
    05:00 +16°C° 0 mm 1 mps 721 mmHg 80%
    06:00 +18°C° 0 mm 1 mps 722 mmHg 78%
    07:00 +19°C° 0 mm 1 mps 722 mmHg 75%
    08:00 +21°C° 0 mm 1 mps 722 mmHg 67%
    09:00 +23°C° 0 mm 1 mps 723 mmHg 60%
    10:00 +25°C° 0 mm 2 mps 723 mmHg 52%
    11:00 +25°C° 0 mm 2 mps 723 mmHg 48%
    12:00 +26°C° 0 mm 2 mps 722 mmHg 44%
    13:00 +27°C° 0 mm 2 mps 722 mmHg 40%
    14:00 +27°C° 0 mm 2 mps 722 mmHg 42%
    15:00 +27°C° 0 mm 2 mps 722 mmHg 43%
    16:00 +27°C° 0 mm 2 mps 721 mmHg 44%
    17:00 +26°C° 0 mm 2 mps 721 mmHg 50%
    18:00 +24°C° 0 mm 1 mps 722 mmHg 57%
    19:00 +23°C° 0 mm 1 mps 722 mmHg 64%
    20:00 +21°C° 0 mm 1 mps 722 mmHg 67%
    21:00 +20°C° 0 mm 1 mps 722 mmHg 69%
    22:00 +17°C° 0 mm 0 mps 723 mmHg 72%
    23:00 +16°C° 0 mm 0 mps 723 mmHg 74%

    25 July, Thursday

    Time Temperature Precipitation Wind Pressure Humidity
    00:00 +18°C° 0 mm 1 mps 723 mmHg 77%
    01:00 +16°C° 0 mm 1 mps 723 mmHg 79%
    02:00 +16°C° 0 mm 1 mps 723 mmHg 80%
    03:00 +15°C° 0 mm 1 mps 723 mmHg 81%
    04:00 +15°C° 0 mm 1 mps 723 mmHg 82%
    05:00 +16°C° 0 mm 1 mps 723 mmHg 79%
    06:00 +18°C° 0 mm 1 mps 724 mmHg 77%
    07:00 +18°C° 0 mm 0 mps 724 mmHg 74%
    08:00 +20°C° 0 mm 0 mps 725 mmHg 67%
    09:00 +22°C° 0 mm 0 mps 725 mmHg 61%
    10:00 +26°C° 0 mm 1 mps 726 mmHg 55%
    11:00 +27°C° 0 mm 1 mps 725 mmHg 53%
    12:00 +27°C° 0 mm 1 mps 725 mmHg 52%
    13:00 +27°C° 0 mm 1 mps 725 mmHg 51%
    14:00 +27°C° 0 mm 1 mps 725 mmHg 52%
    15:00 +27°C° 0 mm 1 mps 725 mmHg 53%
    16:00 +27°C° 0 mm 1 mps 725 mmHg 54%
    17:00 +26°C° 0 mm 1 mps 725 mmHg 59%
    18:00 +24°C° 0 mm 1 mps 725 mmHg 64%
    19:00 +23°C° 0 mm 1 mps 725 mmHg 69%
    20:00 +22°C° 0.1 mm 1 mps 725 mmHg 71%
    21:00 +22°C° 0.1 mm 1 mps 726 mmHg 73%
    22:00 +21°C° 0.1 mm 1 mps 726 mmHg 75%
    23:00 +20°C° 0 mm 1 mps 726 mmHg 79%
    Show more